EW4883 Weather Reports


Display with metric or nautical units.
time (UTC)temp
F
wind
direction
speed
MPH
gust
MPH
rain 1hr
in
rain 24hr
in
rain mn
in
humidity
%
barometer
mb
20260906085053 82 248 2.0 4.0 0.00 0.00 0.00 39 1013.8
20260906084605 83 248 1.0 3.0 0.00 0.00 0.00 39 1013.9
20260906084054 83 248 1.0 4.0 0.00 0.00 0.00 39 1013.8
20260906083554 83 248 2.0 4.0 0.00 0.00 0.00 38 1013.7
20260906083103 83 248 2.0 4.0 0.00 0.00 0.00 38 1013.7
20260906082550 83 248 1.0 7.0 0.00 0.00 0.00 38 1013.7
20260906082052 83 248 1.0 7.0 0.00 0.00 0.00 38 1013.8
20260906081601 83 254 2.0 4.0 0.00 0.00 0.00 38 1013.8
20260906081052 83 254 2.0 4.0 0.00 0.00 0.00 38 1013.9
20260906080553 83 255 2.0 6.0 0.00 0.00 0.00 38 1013.9
20260906075552 83 270 3.0 4.0 0.00 0.00 0.00 38 1014.0
20260906075055 83 270 2.0 3.0 0.00 0.00 0.00 39 1014.1
20260906074601 83 270 2.0 4.0 0.00 0.00 0.00 39 1014.1
20260906074053 83 270 2.0 4.0 0.00 0.00 0.00 39 1014.1
20260906073552 83 270 1.0 4.0 0.00 0.00 0.00 40 1014.1
20260906073102 83 270 2.0 4.0 0.00 0.00 0.00 40 1014.2
20260906072552 83 270 2.0 4.0 0.00 0.00 0.00 40 1014.3
20260906072051 82 270 2.0 4.0 0.00 0.00 0.00 40 1014.3
20260906071606 83 270 2.0 4.0 0.00 0.00 0.00 41 1014.3
20260906071055 83 270 2.0 4.0 0.00 0.00 0.00 40 1014.4
20260906070552 83 270 2.0 4.0 0.00 0.00 0.00 40 1014.4
20260906070059 83 270 2.0 4.0 0.00 0.00 0.00 41 1014.4
20260906065552 83 270 2.0 4.0 0.00 0.00 0.00 41 1014.3
20260906065052 83 271 2.0 4.0 0.00 0.00 0.00 41 1014.4
20260906064601 83 271 2.0 3.0 0.00 0.00 0.00 41 1014.3
20260906064052 82 271 2.0 3.0 0.00 0.00 0.00 41 1014.5
20260906063552 83 271 2.0 3.0 0.00 0.00 0.00 41 1014.5
20260906063103 83 0 0.0 0.0 0.00 0.00 0.00 40 1014.5
20260906062551 84 0 0.0 0.0 0.00 0.00 0.00 40 1014.5
20260906062057 84 0 0.0 1.0 0.00 0.00 0.00 38 1014.5
20260906061604 84 0 0.0 1.0 0.00 0.00 0.00 38 1014.4
20260906061052 85 0 0.0 3.0 0.00 0.00 0.00 38 1014.4
20260906060555 85 0 0.0 3.0 0.00 0.00 0.00 38 1014.4
20260906060100 85 0 0.0 4.0 0.00 0.00 0.00 37 1014.5
20260906055555 85 0 1.0 4.0 0.00 0.00 0.00 37 1014.5
20260906055053 86 271 2.0 4.0 0.00 0.00 0.00 37 1014.6
20260906054604 86 272 2.0 4.0 0.00 0.00 0.00 37 1014.5
20260906054052 86 273 2.0 6.0 0.00 0.00 0.00 36 1014.5
20260906053551 86 275 1.0 6.0 0.00 0.00 0.00 36 1014.6
20260906053104 86 281 3.0 6.0 0.00 0.00 0.00 36 1014.6
20260906052554 86 259 2.0 7.0 0.00 0.00 0.00 36 1014.6
20260906052051 86 284 3.0 7.0 0.00 0.00 0.00 37 1014.5
20260906051601 86 281 2.0 7.0 0.00 0.00 0.00 36 1014.6
20260906051058 87 276 2.0 7.0 0.00 0.00 0.00 37 1014.7
20260906050552 87 288 2.0 7.0 0.00 0.00 0.00 37 1014.8
20260906050133 87 292 3.0 7.0 0.00 0.00 0.00 37 1014.8
20260906045552 87 276 3.0 7.0 0.00 0.00 0.00 36 1014.8
20260906045051 87 257 2.0 9.0 0.00 0.00 0.00 36 1014.7
20260906044559 87 292 3.0 9.0 0.00 0.00 0.00 36 1014.7
20260906044056 87 277 3.0 9.0 0.00 0.00 0.00 36 1014.6
20260906043552 87 291 3.0 8.0 0.00 0.00 0.00 37 1014.6
20260906043058 87 303 2.0 8.0 0.00 0.00 0.00 38 1014.6
20260906042551 87 275 1.0 7.0 0.00 0.00 0.00 38 1014.7
20260906042052 87 261 0.0 3.0 0.00 0.00 0.00 39 1014.6
20260906041601 87 261 1.0 3.0 0.00 0.00 0.00 39 1014.7
20260906041052 87 261 1.0 3.0 0.00 0.00 0.00 39 1014.6
20260906040553 87 261 1.0 4.0 0.00 0.00 0.00 39 1014.6
20260906040137 87 261 1.0 4.0 0.00 0.00 0.00 38 1014.6
20260906035554 88 261 1.0 4.0 0.00 0.00 0.00 38 1014.5
20260906035054 88 261 2.0 4.0 0.00 0.00 0.00 38 1014.5
20260906034607 88 261 1.0 4.0 0.00 0.00 0.00 38 1014.5
20260906034052 88 261 1.0 4.0 0.00 0.00 0.00 38 1014.4
20260906033549 88 261 1.0 6.0 0.00 0.00 0.00 38 1014.3
20260906033058 88 261 2.0 6.0 0.00 0.00 0.00 38 1014.4
20260906032551 88 259 2.0 7.0 0.00 0.00 0.00 38 1014.4
20260906032052 89 253 2.0 7.0 0.00 0.00 0.00 38 1014.3
20260906031604 89 277 2.0 6.0 0.00 0.00 0.00 38 1014.1
20260906031053 89 288 2.0 5.0 0.00 0.00 0.00 37 1014.1
20260906030553 89 286 2.0 5.0 0.00 0.00 0.00 37 1014.0
20260906030105 89 304 1.0 7.0 0.00 0.00 0.00 37 1013.9
20260906025552 89 284 2.0 8.0 0.00 0.00 0.00 37 1014.0
20260906025052 89 288 3.0 8.0 0.00 0.00 0.00 36 1013.8
20260906024606 89 283 2.0 8.0 0.00 0.00 0.00 36 1013.8
20260906024052 90 290 3.0 8.0 0.00 0.00 0.00 36 1013.8
20260906023552 90 292 2.0 5.0 0.00 0.00 0.00 36 1013.7
20260906023103 90 302 1.0 5.0 0.00 0.00 0.00 35 1013.7
20260906022554 90 303 1.0 5.0 0.00 0.00 0.00 35 1013.5
20260906022053 90 303 2.0 5.0 0.00 0.00 0.00 35 1013.4
20260906021607 90 311 2.0 9.0 0.00 0.00 0.00 34 1013.4
20260906021052 90 303 2.0 9.0 0.00 0.00 0.00 34 1013.4
20260906020552 91 274 2.0 9.0 0.00 0.00 0.00 34 1013.5
20260906020108 91 300 3.0 9.0 0.00 0.00 0.00 33 1013.5
20260906015555 91 295 1.0 7.0 0.00 0.00 0.00 33 1013.4
20260906015052 91 300 3.0 7.0 0.00 0.00 0.00 33 1013.5
20260906014602 91 0 1.0 10.0 0.00 0.00 0.00 33 1013.5
20260906014052 91 313 2.0 10.0 0.00 0.00 0.00 33 1013.4
20260906013551 91 351 4.0 10.0 0.00 0.00 0.00 33 1013.4
20260906013058 92 321 4.0 10.0 0.00 0.00 0.00 32 1013.4
20260906012555 92 328 3.0 10.0 0.00 0.00 0.00 32 1013.4
20260906012051 92 303 3.0 9.0 0.00 0.00 0.00 32 1013.4
20260906011603 92 282 3.0 9.0 0.00 0.00 0.00 32 1013.4
20260906011054 92 309 3.0 10.0 0.00 0.00 0.00 32 1013.5
20260906010551 93 294 4.0 10.0 0.00 0.00 0.00 32 1013.4
20260906010106 93 271 5.0 10.0 0.00 0.00 0.00 32 1013.4
20260906005551 93 319 4.0 12.0 0.00 0.00 0.00 33 1013.5
20260906005053 93 0 4.0 12.0 0.00 0.00 0.00 32 1013.5
20260906004605 94 323 3.0 10.0 0.00 0.00 0.00 32 1013.5
20260906004051 94 272 4.0 10.0 0.00 0.00 0.00 32 1013.5
20260906003552 94 297 5.0 10.0 0.00 0.00 0.00 32 1013.5
20260906003105 94 5 4.0 9.0 0.00 0.00 0.00 32 1013.4
20260906002551 94 277 4.0 14.0 0.00 0.00 0.00 32 1013.5
20260906002052 95 293 6.0 14.0 0.00 0.00 0.00 32 1013.4
20260906001612 95 254 3.0 9.0 0.00 0.00 0.00 32 1013.5
20260906001051 95 319 3.0 9.0 0.00 0.00 0.00 32 1013.4
20260906000554 95 263 3.0 9.0 0.00 0.00 0.00 32 1013.5
20260906000059 95 340 2.0 11.0 0.00 0.00 0.00 32 1013.5
20260905235551 95 286 4.0 14.0 0.00 0.00 0.00 33 1013.4
20260905235051 95 273 6.0 14.0 0.00 0.00 0.00 32 1013.4
20260905234605 95 290 5.0 13.0 0.00 0.00 0.00 32 1013.4
20260905234052 95 265 4.0 11.0 0.00 0.00 0.00 32 1013.4
20260905233552 95 263 5.0 12.0 0.00 0.00 0.00 32 1013.4
20260905233112 95 284 5.0 12.0 0.00 0.00 0.00 32 1013.4
20260905232551 95 305 7.0 12.0 0.00 0.00 0.00 32 1013.4
20260905232051 95 311 4.0 13.0 0.00 0.00 0.00 32 1013.5
20260905231602 95 306 6.0 13.0 0.00 0.00 0.00 32 1013.6
20260905231054 95 277 7.0 13.0 0.00 0.00 0.00 32 1013.5
20260905230551 95 319 6.0 13.0 0.00 0.00 0.00 32 1013.5
20260905230100 95 306 7.0 13.0 0.00 0.00 0.00 32 1013.6
20260905225551 95 248 7.0 12.0 0.00 0.00 0.00 32 1013.6
20260905225051 95 280 5.0 12.0 0.00 0.00 0.00 31 1013.7
20260905224610 95 260 4.0 13.0 0.00 0.00 0.00 31 1013.6
20260905224050 95 295 5.0 13.0 0.00 0.00 0.00 31 1013.6
20260905223551 95 255 6.0 14.0 0.00 0.00 0.00 31 1013.8
20260905223102 96 263 7.0 14.0 0.00 0.00 0.00 30 1013.9
20260905222552 96 288 2.0 13.0 0.00 0.00 0.00 31 1013.9
20260905222053 96 284 5.0 13.0 0.00 0.00 0.00 31 1013.9
20260905221603 96 5 3.0 11.0 0.00 0.00 0.00 31 1013.9
20260905221051 96 285 3.0 11.0 0.00 0.00 0.00 31 1014.0
20260905220551 96 268 5.0 11.0 0.00 0.00 0.00 31 1014.0
20260905215551 95 290 2.0 12.0 0.00 0.00 0.00 32 1014.1
20260905215051 95 352 4.0 12.0 0.00 0.00 0.00 31 1014.1
20260905214603 95 251 3.0 10.0 0.00 0.00 0.00 31 1014.3
20260905214052 95 293 2.0 9.0 0.00 0.00 0.00 31 1014.2
20260905213552 95 9 2.0 16.0 0.00 0.00 0.00 31 1014.3
20260905213108 95 309 6.0 16.0 0.00 0.00 0.00 31 1014.4
20260905212551 95 283 8.0 13.0 0.00 0.00 0.00 31 1014.3
20260905212051 95 285 5.0 12.0 0.00 0.00 0.00 31 1014.4
20260905211604 95 14 4.0 12.0 0.00 0.00 0.00 31 1014.4
20260905211051 95 9 5.0 12.0 0.00 0.00 0.00 31 1014.5
20260905210551 95 338 3.0 11.0 0.00 0.00 0.00 30 1014.6
20260905210110 95 294 4.0 10.0 0.00 0.00 0.00 31 1014.7
20260905205551 95 360 1.0 11.0 0.00 0.00 0.00 31 1014.7
20260905205053 94 304 5.0 11.0 0.00 0.00 0.00 32 1014.8
20260905204601 94 308 2.0 13.0 0.00 0.00 0.00 32 1014.9
20260905204055 94 277 6.0 13.0 0.00 0.00 0.00 32 1015.0
20260905203551 94 308 5.0 13.0 0.00 0.00 0.00 32 1015.1
20260905203100 94 288 5.0 11.0 0.00 0.00 0.00 33 1015.1
20260905202550 94 254 6.0 11.0 0.00 0.00 0.00 32 1015.1
20260905202051 94 263 3.0 9.0 0.00 0.00 0.00 32 1015.3
20260905201610 94 28 2.0 10.0 0.00 0.00 0.00 32 1015.3
20260905201050 94 360 4.0 10.0 0.00 0.00 0.00 32 1015.4
20260905200551 94 293 3.0 10.0 0.00 0.00 0.00 32 1015.5
20260905200140 94 17 2.0 10.0 0.00 0.00 0.00 33 1015.5
20260905195555 94 352 4.0 10.0 0.00 0.00 0.00 33 1015.6
20260905195051 93 264 4.0 12.0 0.00 0.00 0.00 33 1015.7
20260905194601 93 277 5.0 13.0 0.00 0.00 0.00 33 1015.8
20260905194053 93 329 5.0 13.0 0.00 0.00 0.00 33 1015.8
20260905193550 93 294 4.0 9.0 0.00 0.00 0.00 33 1015.9
20260905193101 93 296 2.0 9.0 0.00 0.00 0.00 33 1015.9
20260905192551 93 256 3.0 11.0 0.00 0.00 0.00 32 1016.0
20260905192054 94 351 4.0 11.0 0.00 0.00 0.00 33 1016.2
20260905191600 93 298 1.0 8.0 0.00 0.00 0.00 33 1016.2
20260905191053 93 338 2.0 11.0 0.00 0.00 0.00 33 1016.2
20260905190550 93 321 4.0 11.0 0.00 0.00 0.00 34 1016.2
20260905190058 92 43 4.0 11.0 0.00 0.00 0.00 34 1016.3
20260905185551 92 264 3.0 11.0 0.00 0.00 0.00 35 1016.4
20260905185055 92 296 4.0 11.0 0.00 0.00 0.00 34 1016.5
20260905184609 92 336 4.0 9.0 0.00 0.00 0.00 34 1016.5
20260905184051 92 305 4.0 10.0 0.00 0.00 0.00 34 1016.6
20260905183554 92 352 4.0 10.0 0.00 0.00 0.00 35 1016.5
20260905183107 91 320 4.0 10.0 0.00 0.00 0.00 36 1016.6
20260905182550 92 28 4.0 9.0 0.00 0.00 0.00 34 1016.7
20260905182051 91 352 3.0 9.0 0.00 0.00 0.00 35 1016.7
20260905181607 90 0 3.0 9.0 0.00 0.00 0.00 36 1016.7
20260905181052 90 67 3.0 9.0 0.00 0.00 0.00 37 1016.7
20260905180553 91 26 5.0 9.0 0.00 0.00 0.00 35 1016.7
20260905175552 91 0 2.0 10.0 0.00 0.00 0.00 35 1016.7
20260905175052 91 337 3.0 10.0 0.00 0.00 0.00 37 1016.8
20260905174600 90 345 3.0 8.0 0.00 0.00 0.00 38 1016.9
20260905174056 90 311 2.0 8.0 0.00 0.00 0.00 37 1016.8
20260905173554 90 0 3.0 9.0 0.00 0.00 0.00 37 1017.0
20260905173103 90 13 3.0 9.0 0.00 0.00 0.00 38 1017.1
20260905172553 90 274 0.0 6.0 0.00 0.00 0.00 39 1017.0
20260905172053 89 0 1.0 8.0 0.00 0.00 0.00 39 1017.0
20260905171607 89 286 3.0 8.0 0.00 0.00 0.00 39 1017.2
20260905171053 89 352 2.0 6.0 0.00 0.00 0.00 38 1017.1
20260905170553 89 278 1.0 6.0 0.00 0.00 0.00 38 1017.2
20260905170100 89 336 2.0 6.0 0.00 0.00 0.00 39 1017.2
20260905165552 88 342 0.0 5.0 0.00 0.00 0.00 40 1017.3
20260905165054 88 0 2.0 6.0 0.00 0.00 0.00 41 1017.3
20260905164555 88 40 0.0 6.0 0.00 0.00 0.00 43 1017.2
20260905164053 87 0 3.0 6.0 0.00 0.00 0.00 44 1017.2
20260905163553 87 322 2.0 4.0 0.00 0.00 0.00 44 1017.2
20260905163102 87 325 2.0 6.0 0.00 0.00 0.00 43 1017.1
20260905162553 87 86 1.0 6.0 0.00 0.00 0.00 45 1017.1
20260905162053 87 23 1.0 4.0 0.00 0.00 0.00 45 1017.2
20260905161606 86 21 1.0 4.0 0.00 0.00 0.00 47 1017.1
20260905161052 86 0 1.0 4.0 0.00 0.00 0.00 47 1017.1
20260905160554 86 0 0.0 3.0 0.00 0.00 0.00 49 1017.1
20260905160056 85 0 1.0 3.0 0.00 0.00 0.00 49 1017.1
20260905155552 85 81 0.0 3.0 0.00 0.00 0.00 49 1017.1
20260905155054 85 82 0.0 3.0 0.00 0.00 0.00 51 1017.1
20260905154602 84 82 0.0 3.0 0.00 0.00 0.00 53 1017.0
20260905154054 84 0 1.0 4.0 0.00 0.00 0.00 53 1017.1
20260905153552 84 0 0.0 4.0 0.00 0.00 0.00 55 1017.1
20260905153100 83 82 2.0 4.0 0.00 0.00 0.00 55 1017.1
20260905152552 83 81 0.0 0.0 0.00 0.00 0.00 56 1017.1
20260905152052 82 0 0.0 4.0 0.00 0.00 0.00 57 1017.1
20260905151558 82 0 0.0 4.0 0.00 0.00 0.00 59 1017.1
20260905151053 82 81 1.0 4.0 0.00 0.00 0.00 59 1017.1
20260905150553 82 81 2.0 4.0 0.00 0.00 0.00 59 1017.1
20260905150106 82 81 0.0 3.0 0.00 0.00 0.00 59 1017.0
20260905145553 81 82 1.0 3.0 0.00 0.00 0.00 59 1017.0
20260905145053 80 0 0.0 3.0 0.00 0.00 0.00 62 1017.0
20260905144602 80 0 1.0 4.0 0.00 0.00 0.00 63 1017.1
20260905144052 79 82 1.0 4.0 0.00 0.00 0.00 64 1017.1
20260905143549 79 82 1.0 4.0 0.00 0.00 0.00 65 1017.0
20260905143102 79 82 2.0 5.0 0.00 0.00 0.00 66 1017.0
20260905142551 78 82 2.0 5.0 0.00 0.00 0.00 65 1016.9
20260905142049 78 82 2.0 4.0 0.00 0.00 0.00 66 1016.8
20260905141559 78 86 1.0 6.0 0.00 0.00 0.00 67 1016.8
20260905141052 78 86 1.0 6.0 0.00 0.00 0.00 66 1016.8
20260905140554 78 88 2.0 5.0 0.00 0.00 0.00 66 1016.7
20260905140106 77 46 0.0 2.0 0.00 0.00 0.00 67 1016.6
20260905135553 77 0 0.0 0.0 0.00 0.00 0.00 68 1016.6
20260905135052 76 0 0.0 0.0 0.00 0.00 0.00 70 1016.6
20260905134606 75 0 0.0 0.0 0.00 0.00 0.00 72 1016.5
20260905134053 74 0 0.0 0.0 0.00 0.00 0.00 74 1016.3
20260905133554 73 0 0.0 0.0 0.00 0.00 0.00 76 1016.3
20260905133059 73 0 0.0 0.0 0.00 0.00 0.00 75 1016.2
20260905132552 72 0 0.0 0.0 0.00 0.00 0.00 76 1016.1
20260905132052 72 0 0.0 0.0 0.00 0.00 0.00 76 1016.0
20260905131556 72 0 0.0 0.0 0.00 0.00 0.00 77 1015.9
20260905131053 72 0 0.0 0.0 0.00 0.00 0.00 77 1015.8
20260905130556 72 0 0.0 0.0 0.00 0.00 0.00 76 1015.8
20260905130110 72 0 0.0 0.0 0.00 0.00 0.00 76 1015.7
20260905125556 72 0 0.0 0.0 0.00 0.00 0.00 76 1015.8
20260905125053 72 0 0.0 0.0 0.00 0.00 0.00 76 1015.8
20260905124601 73 0 0.0 0.0 0.00 0.00 0.00 75 1015.7
20260905124049 73 0 0.0 0.0 0.00 0.00 0.00 75 1015.8
20260905123552 73 0 0.0 0.0 0.00 0.00 0.00 74 1015.7
20260905123106 73 0 0.0 0.0 0.00 0.00 0.00 73 1015.7
20260905122549 73 0 0.0 0.0 0.00 0.00 0.00 73 1015.7
20260905122052 73 0 0.0 0.0 0.00 0.00 0.00 73 1015.6
20260905121603 73 0 0.0 0.0 0.00 0.00 0.00 73 1015.5
20260905121053 73 0 0.0 0.0 0.00 0.00 0.00 73 1015.4
20260905120555 73 0 0.0 0.0 0.00 0.00 0.00 73 1015.5
20260905115549 74 0 0.0 0.0 0.00 0.00 0.00 73 1015.4
20260905115052 74 0 0.0 0.0 0.00 0.00 0.00 72 1015.4
20260905114608 74 0 0.0 0.0 0.00 0.00 0.00 72 1015.4
20260905114053 74 0 0.0 0.0 0.00 0.00 0.00 72 1015.6
20260905113553 74 0 0.0 0.0 0.00 0.00 0.00 71 1015.5
20260905113100 74 0 0.0 0.0 0.00 0.00 0.00 71 1015.5
20260905112553 74 0 0.0 0.0 0.00 0.00 0.00 70 1015.5
20260905112056 74 0 0.0 0.0 0.00 0.00 0.00 70 1015.5
20260905111614 75 0 0.0 0.0 0.00 0.00 0.00 70 1015.5
20260905111052 75 0 0.0 0.0 0.00 0.00 0.00 69 1015.5
20260905110556 75 0 0.0 0.0 0.00 0.00 0.00 69 1015.4
20260905105553 74 0 0.0 0.0 0.00 0.00 0.00 69 1015.5
20260905105052 75 0 0.0 0.0 0.00 0.00 0.00 68 1015.5
20260905104607 75 0 0.0 0.0 0.00 0.00 0.00 69 1015.4
20260905104056 75 0 0.0 0.0 0.00 0.00 0.00 69 1015.4
20260905103551 75 0 0.0 0.0 0.00 0.00 0.00 69 1015.4
20260905103101 75 0 0.0 0.0 0.00 0.00 0.00 69 1015.5
20260905102553 75 0 0.0 0.0 0.00 0.00 0.00 68 1015.5
20260905102053 75 0 0.0 0.0 0.00 0.00 0.00 67 1015.5
20260905101608 75 0 0.0 0.0 0.00 0.00 0.00 67 1015.5
20260905101052 75 0 0.0 0.0 0.00 0.00 0.00 67 1015.4
20260905100557 75 0 0.0 0.0 0.00 0.00 0.00 66 1015.4
20260905100124 75 0 0.0 0.0 0.00 0.00 0.00 67 1015.3
20260905095552 75 0 0.0 0.0 0.00 0.00 0.00 67 1015.4
20260905095049 75 0 0.0 0.0 0.00 0.00 0.00 67 1015.4
20260905094611 75 0 0.0 0.0 0.00 0.00 0.00 66 1015.5
20260905094056 76 0 0.0 0.0 0.00 0.00 0.00 67 1015.5
20260905093552 76 0 0.0 0.0 0.00 0.00 0.00 66 1015.5
20260905093102 76 0 0.0 0.0 0.00 0.00 0.00 66 1015.4
20260905092553 76 0 0.0 0.0 0.00 0.00 0.00 65 1015.5
20260905092052 76 0 0.0 0.0 0.00 0.00 0.00 65 1015.5
20260905091608 76 0 0.0 0.0 0.00 0.00 0.00 65 1015.5
20260905091050 77 0 0.0 0.0 0.00 0.00 0.00 64 1015.5
20260905090553 77 0 0.0 0.0 0.00 0.00 0.00 63 1015.5
20260905090108 77 0 0.0 2.0 0.00 0.00 0.00 62 1015.5
20260905085553 77 0 0.0 2.0 0.00 0.00 0.00 63 1015.5